Location: Bougoudala
(13.2282°N, 4.9477°W)
Time: 02:11:44
(UTC+00:00)

Kiku-3 - Pass Details

Date: 29 January 2020
Orbit: 310 x 13761 km, 28.4° (Epoch: 25 February)

Event Time Altitude Azimuth Distance (km) Brightness Sun altitude
Rises 19:05:34 0° 296° (WNW) 4,769 10.4 -11.7°
Reaches altitude 10° 19:10:09 10° 296° (WNW) 2,601 9.0 -12.7°
Maximum altitude 19:15:04 86° 207° (SSW) 444 4.3 -13.9°
Enters shadow 19:16:33 22° 119° (ESE) 846 5.4 -14.2°
